Skip Page Navigation
NASA JPL Caltech
NASA Logo - Jet Propulsion Laboratory + View the NASA Portal
+ Near-Earth Object (NEO) Program
Search JPL
JPL Home Earth Solar System Stars & Galaxies Technology
JPL Solar System Dynamics
BODIES ORBITS EPHEMERIDES TOOLS PHYSICAL DATA DISCOVERY FAQ SITE MAP
JPL Small-Body Database Browser
Search: [ help ]  
154590 (2003 MA3)
Classification: Apollo [NEO, PHA]          SPK-ID: 2154590
Ephemeris | Orbit Diagram | Orbital Elements | Physical Parameters | Discovery Circumstances | Close-Approach Data ]

[ hide orbit diagram ]
Orbit Diagram
Note: Make sure you have Java enabled on your browser to see the applet. This applet is provided as a 3D orbit visualization tool. The applet was implemented using 2-body methods, and hence should not be used for determining accurate long-term trajectories (over several years or decades) or planetary encounter circumstances. For accurate long-term ephemerides, please instead use our Horizons system.
Orbit Viewer

Additional Notes: the orbits shown in the applet are color coded. The planets are white lines, and the asteroid/comet is a blue line. The bright white line indicates the portion of the orbit that is above the ecliptic plane, and the darker portion is below the ecliptic plane. Likewise for the asteroid/comet orbit, the light blue indicates the portion above the ecliptic plane, and the dark blue the portion below the ecliptic plane.

Orbit Viewer applet originally written and kindly provided by Osamu Ajiki (AstroArts), and further modified by Ron Baalke (JPL).


Orbital Elements at Epoch 2456400.5 (2013-Apr-18.0) TDB
Reference: JPL 23 (heliocentric ecliptic J2000)
 Element Value Uncertainty (1-sigma)   Units 
e .4022437985825082 6.1276e-08  
a 1.105372393741684 3.4981e-09 AU
q .6607432032347889 6.8113e-08 AU
i 1.41280558000785 6.6679e-06 deg
node 152.6535125877507 0.00034319 deg
peri 228.9203797537189 0.00034378 deg
M 94.48991469829993 1.0271e-05 deg
tp 2456289.084835947292
(2012-Dec-27.58483595)
1.1914e-05 JED
period 424.4840223111809
1.16
2.015e-06
5.517e-09
d
yr
n .8480884581707321 4.0258e-09 deg/d
Q 1.550001584248579 4.9051e-09 AU
  Orbit Determination Parameters
   # obs. used (total)      88  
   data-arc span      5148 days (14.09 yr)  
   first obs. used      1998-01-29  
   last obs. used      2012-03-04  
   planetary ephem.      DE405  
   SB-pert. ephem.      SB405-CPV-2  
   condition code      0  
   fit RMS      .5131  
   data source      ORB  
   producer      Otto Matic  
   solution date      2013-Apr-29 15:39:33  

Additional Information
 Earth MOID = .0130505 AU 
 T_jup = 5.551 
[ show covariance matrix ]

Ephemeris | Orbit Diagram | Orbital Elements | Physical Parameters | Discovery Circumstances | Close-Approach Data ]

Physical Parameter Table
Parameter Symbol Value Units Sigma Reference Notes
absolute magnitude H 21.658 mag .41239 23 autocmod 2.5c

154590 (2003 MA3)          Discovered 2003-Jun-26 by NEAT at Haleakala (608)
Reference: 20070402/Numbers.arcLast Updated: 2007-04-04

[ show close-approach data ]
Ephemeris | Orbit Diagram | Orbital Elements | Physical Parameters | Discovery Circumstances | Close-Approach Data ]
ABOUT SSD CREDITS/AWARDS PRIVACY/COPYRIGHT GLOSSARY LINKS
FirstGov 2013-May-19 05:57 UT
(server date/time)  
NASA Home Page
Site Manager:   Donald K. Yeomans
Webmaster  Alan B. Chamberlin